Regional Weather Roundup
Issued by NWS San Diego, CA

Current Version | Previous Version | Text Only | Print | Product List | Glossary On
Versions: 1 2 3 4 5 6 7 8 9 10 11 12 13 14 15 16 17 18 19 20 21 22 23 24 25 26 27 28
000
ASUS46 KSGX 191211
RWRSGX

SAN DIEGO HOURLY WEATHER ROUNDUP
NATIONAL WEATHER SERVICE SAN DIEGO CA
400 AM PST SUN FEB 19 2017

NOTE: "FAIR" INDICATES FEW OR NO CLOUDS BELOW 12,000 FEET WITH NO
SIGNIFICANT WEATHER AND/OR OBSTRUCTIONS TO VISIBILITY.

CAZ042-043-060-061-PZZ750-775-191300-

GREATER SAN DIEGO AREA

CITY           SKY/WX    TMP DP  RH WIND       PRES   REMARKS
SAN DIEGO AP   CLOUDY    57  49  74 W6        29.86R
NATIONAL CITY    N/A     55  52  90 CALM      29.85R
CHULA VISTA      N/A     54  52  95 W2        29.77R
IMPERIAL BEACH CLOUDY   N/A N/A N/A W12       29.85R
BROWN FIELD    CLOUDY    53  52  96 CALM      29.85R
MIRAMAR MCAS   CLOUDY    56  51  84 SW3       29.84R
MONTGOMERY FLD CLOUDY    53  50  89 CALM      29.84R

$$

NORTH SAN DIEGO COUNTY

CITY           SKY/WX    TMP DP  RH WIND       PRES   REMARKS
CAMP PENDLETON CLOUDY    54  53  97 CALM      29.82R
OCEANSIDE AP   CLOUDY    56  54  93 CALM      29.82R
OCEANSIDE HBR    N/A     56  52  88 CALM      29.85R
VISTA            N/A     53  48  83 CALM      29.81R
CARLSBAD       CLOUDY    55  52  89 CALM      29.82R
DEL MAR          N/A     55  52  89 CALM      29.86R
LA JOLLA SCRIP   N/A     56  52  87 S8        29.83R
FALLBROOK        N/A     52  52 100 CALM      29.81R
ESCONDIDO        N/A     53  51  94 CALM      29.85R
SAN MARCOS       N/A     52  48  86 CALM      29.85R
POWAY            N/A     52  49  92 CALM      29.87R

$$

EAST SAN DIEGO COUNTY

CITY           SKY/WX    TMP DP  RH WIND       PRES   REMARKS
RAMONA         LGT RAIN  50  50 100 W6        29.83R FOG
SANTEE LAKES     N/A     53  51  93 CALM      29.84R
LA MESA          N/A     51  50  95 CALM      29.78R
JAMUL            N/A     50  49  97 CALM      29.85R
DESCANSO N       N/A     41  40  96 SW5       29.80R
CAMPO            N/A     45  45 100 SW12      29.78R

$$

ORANGE COUNTY AND THE LOS ANGELES BASIN

CITY           SKY/WX    TMP DP  RH WIND       PRES   REMARKS
JOHN WAYNE AP  CLOUDY    56  51  84 SW5       29.81R
LAKE FOREST FR   N/A     51  48  90 CALM      29.72R
HUNTINGTON BCH   N/A     55  53  91 SW3       29.82R
LOS ALAMITOS   FAIR      52  51  99 SE5       29.79R
FULLERTON      CLOUDY    53  52  96 E6        29.79R
LONG BEACH     PTCLDY    50  49  96 CALM      29.79R
L.A. AP        MOCLDY    51  51 100 CALM      29.80R
L.A. DOWNTOWN  MOCLDY    54  51  90 CALM      29.79R

$$

THE INLAND EMPIRE

CITY           SKY/WX    TMP DP  RH WIND       PRES   REMARKS
CORONA         CLOUDY    50  49  96 CALM      29.81R
CHINO          CLOUDY    54  49  83 S5        29.81R
ONTARIO        CLOUDY    51  49  92 W5        29.79R
SAN BERNARDINO CLOUDY    53  49  85 CALM      29.80S
RIVERSIDE AP   CLOUDY    52  51  97 CALM      29.80R
MORENO VALLEY    N/A     50  50  99 SE2       27.93R
MARCH ARB      CLOUDY    50  50 100 SE7       29.79R
HORSETHIEF CYN   N/A     63  60  88 CALM      29.78R
PERRIS           N/A     49  49  99 SE2       29.84R
HEMET EAST       N/A     48  45  87 CALM      29.87R
FRENCH VALLEY  CLOUDY    50  48  93 S5        29.82R
TEMECULA         N/A     52  51  96 SW1       29.87R

$$

SAN BERNARDINO AND RIVERSIDE COUNTY MOUNTAINS

CITY           SKY/WX    TMP DP  RH WIND       PRES   REMARKS
BIG BEAR AP    MIX PCPN  32  32 100 W5        29.76R WCI  27
ANGELUS OAKS     N/A     35  33  92 CALM      29.77R
PINE COVE        N/A     34  34  99 W2        29.83R

$$

SOUTHERN DESERT INCLUDING THE COACHELLA VALLEY

CITY           SKY/WX    TMP DP  RH WIND       PRES   REMARKS
PALM SPRINGS   CLOUDY    55  55 100 E5        29.79R FOG
PALM DESERT      N/A     54  52  92 CALM        N/A
THERMAL        PTCLDY    51  51 100 NW3       29.76R FOG
BLYTHE         CLOUDY    54  54 100 S7        29.76R
IMPERIAL AP    CLEAR     49  47  93 CALM      29.76R FOG
EL CENTRO NAS  FOG       46  45  96 CALM      29.78R VSB 1/4
YUMA AZ        CLOUDY    56  51  84 SE7       29.76

$$

UPPER DESERT

CITY           SKY/WX    TMP DP  RH WIND       PRES   REMARKS
VICTORVILLE AP CLOUDY    46  39  76 SW8       29.76R
HESPERIA         N/A     45  42  88 W7        29.91R
PALMDALE       CLOUDY    48  43  82 W12       29.76R
LANCASTER      CLEAR     47  40  76 W17       29.76R
EDWARDS AFB    PTCLDY    45  44  97 SW14      29.72R
DAGGETT        PTCLDY    45  42  89 W5        29.73R
29 PALMS N     CLEAR     48  42  80 W12       29.81R
NEEDLES        CLOUDY    55  50  83 SE3       29.75R

$$

REGIONAL REPORTS

CITY           SKY/WX    TMP DP  RH WIND       PRES   REMARKS
SANTA BARBARA  CLEAR     46  45  96 NW3       29.78S
SANDBERG       FOG       40  38  93 N16       29.79R VSB 1/4 WCI  31
LAS VEGAS NV   MOCLDY    50  45  83 S7        29.68R
PHOENIX AZ     CLOUDY    51  49  92 SE8       29.79S
TIJUANA        CLOUDY    52  48  87 CALM      29.86R
ENSENADA NW      N/A     55  32  42 CALM      29.84R

$$

OFFSHORE ISLANDS

CITY           SKY/WX    TMP DP  RH WIND       PRES   REMARKS
CATALINA ARPT  CLOUDY    49  48  97 W10       29.80R
SAN NICOLAS IS PTCLDY   N/A N/A N/A W28G35    29.82R

$$

MARINE AND OFFSHORE BUOY REPORTS

STATION/POSITION SKY/WX   TEMP    WIND        PRES    VSBY  SWELL
                          AIR SEA DIR/SP/G                  HT/PER/DIR
                          (F)     (DEG/KT/KT) (MB)    (MI)  (FT/S/D)
TANNER BANKS               56 58  300/ 19/ 23 1010.6         13/300/14
S CLEMENTE BASIN           56 59  280/ 17/ 19 1009.5         11/290/14
SAN NICOLAS IS.               56                N/A          10/290/13
SO. S. ROSA ISLA           54 56  300/ 23/ 29 1009.4         10/290/13
W. S. BARBARA CH           55 56  330/ 19/ 25 1009.9         13/280/13
M. S. BARBARA CH                  300/ 17/ 21 1009.3R
S. MONICA BASIN            56 58  300/ 16/ 21 1008.8R         8/280/13
S PEDRO CHANNEL               59                N/A           8/270/13
CMP PENDLETON NS              58                N/A           5/250/14
OCEANSIDE OFFSHR              59                N/A           7/260/13
TORREY PINES OTR              59                N/A           7/260/12
POINT LOMA SOUTH              59                N/A          10/270/14

$$





USA.gov is the U.S. government's official web portal to all federal, state and local government web resources and services.